This is the latest recevied weather packets stored in our database for station/object JF2ZGN-13. If no packets are shown the sender has not sent any weather packets the latest 10 day(s).
| Time | Temp. | Humidity | Pressure | Rain* | Wind** | Luminosity | Snow |
|---|---|---|---|---|---|---|---|
| 1777759443 | 15° C | 34% | 906.4 hPa | 0 mm | - | - | - |
| 1777758843 | 14.44° C | 32% | 906.4 hPa | 0 mm | - | - | - |
| 1777757642 | 14.44° C | 30% | 906.3 hPa | 0 mm | - | - | - |
| 1777757041 | 14.44° C | 31% | 906.4 hPa | 0 mm | - | - | - |
| 1777755840 | 14.44° C | 34% | 906.3 hPa | 0 mm | - | - | - |
| 1777752839 | 13.89° C | 36% | 905.9 hPa | 0 mm | - | - | - |
| 1777752238 | 13.89° C | 36% | 905.9 hPa | 0 mm | - | - | - |
| 1777751637 | 13.89° C | 36% | 905.9 hPa | 0 mm | - | - | - |
| 1777751037 | 13.89° C | 35% | 906 hPa | 0 mm | - | - | - |
| 1777750436 | 13.89° C | 35% | 906 hPa | 0 mm | - | - | - |
| 1777749836 | 13.89° C | 36% | 906 hPa | 0 mm | - | - | - |
| 1777749236 | 14.44° C | 35% | 906 hPa | 0 mm | - | - | - |
| 1777748636 | 14.44° C | 35% | 906 hPa | 0 mm | - | - | - |
| 1777748034 | 14.44° C | 34% | 906 hPa | 0 mm | - | - | - |
| 1777747434 | 13.89° C | 35% | 905.9 hPa | 0 mm | - | - | - |
| 1777737827 | 13.89° C | 40% | 906.1 hPa | 0 mm | - | - | - |
| 1777737226 | 13.89° C | 40% | 906.3 hPa | 0 mm | - | - | - |
| 1777736626 | 14.44° C | 39% | 906.4 hPa | 0 mm | - | - | - |
| 1777736026 | 14.44° C | 39% | 906.3 hPa | 0 mm | - | - | - |
| 1777735425 | 14.44° C | 39% | 906.3 hPa | 0 mm | - | - | - |
| 1777734825 | 14.44° C | 40% | 906.3 hPa | 0 mm | - | - | - |
| 1777733624 | 14.44° C | 40% | 906.3 hPa | 0 mm | - | - | - |
| 1777732423 | 14.44° C | 40% | 906.2 hPa | 0 mm | - | - | - |
| 1777731822 | 13.89° C | 39% | 906.4 hPa | 0 mm | - | - | - |
| 1777731221 | 14.44° C | 40% | 906.4 hPa | 0 mm | - | - | - |
* Rain since midnight (hover to see other rain measurements)
** Current wind speed in m/s (hover to see current wind gust speed)